Home > Time Zones > World Clock > Weather > U.S.A. > Erie > Past weeks

Flag for U.S.A. Weather past 2 weeks in Erie, Pennsylvania, U.S.A.

Now
81 °F

Passing clouds.


Feels Like: 83 °F
Forecast: 64 / 76 °F
Wind: 6 mph from Southwest

Location: Erie International Airport

Current Time: May 30, 2015 at 3:05:38 PM

Latest Report: May 30, 2015 at 1:51 PM


Visibility: 10 mi

Pressure: 29.98 "Hg

Humidity: 60%

Dew point: 66 °F

Location of ErieLocation

Historic Weather in Erie — Graph

°F

Erie temperature yesterday

Maximum temperature yesterday: 84 °F (at 3:51 PM)
Minimum temperature yesterday: 63 °F (at 12:51 AM)
Average temperature yesterday: 74 °F

Past Weeks' High & Low Weather Summary

 TemperatureHumidityPressure
High84 °F (May 27, 4:51 PM)90% (May 15, 10:51 PM)30.45 "Hg (May 15, 10:51 PM)
Low36 °F (May 23, 4:51 AM)15% (May 23, 5:51 PM)29.92 "Hg (May 19, 3:51 AM)
Average65 °F62%30.11 "Hg
* Reported May 15 1:51 PM — May 30 1:51 PM, Erie, Weather by CustomWeather, © 2015

Note: Actual official high and low records may vary slightly from our data, if they occured in-between our weather recording intervals... More about our weather records

Advertising

Erie weather history for previous 24 hours

 ConditionsComfort  
Time TempWeatherWind HumidityBarometerVisibility
1:51 PM
Sat, May 30
81 °FPassing clouds.6 mph60%29.98 "Hg10 mi
12:51 PM77 °FMostly cloudy.10 mph64%30.01 "Hg10 mi
11:51 AM81 °FMostly cloudy.10 mph60%30.02 "Hg10 mi
10:51 AM79 °FPassing clouds.13 mph65%30.03 "Hg10 mi
9:51 AM78 °FSunny.10 mph64%30.03 "Hg10 mi
8:51 AM76 °FScattered clouds.12 mph67%30.04 "Hg10 mi
7:51 AM74 °FSunny.14 mph71%30.03 "Hg10 mi
6:51 AM73 °FPassing clouds.13 mph71%30.02 "Hg10 mi
5:51 AM73 °FClear.15 mph71%30.01 "Hg10 mi
4:51 AM73 °FClear.15 mph71%30.00 "Hg10 mi
3:51 AM73 °FClear.14 mph71%30.01 "Hg10 mi
2:51 AM72 °FPassing clouds.14 mph73%30.01 "Hg10 mi
1:51 AM72 °FClear.10 mph73%30.01 "Hg10 mi
12:51 AM73 °FClear.16 mph71%30.02 "Hg10 mi
11:51 PM
Fri, May 29
73 °FClear.13 mph71%30.04 "Hg10 mi
10:51 PM74 °FClear.14 mph69%30.05 "Hg10 mi
9:51 PM75 °FClear.15 mph66%30.04 "Hg10 mi
8:51 PM76 °FSunny.9 mph64%30.04 "Hg10 mi
7:51 PM78 °FSunny.9 mph64%30.04 "Hg10 mi
6:51 PM78 °FScattered clouds.3 mph60%30.06 "Hg10 mi
5:51 PM81 °FThundershowers. Partly sunny.13 mph51%30.06 "Hg10 mi
4:51 PM84 °FPassing clouds.8 mph48%30.07 "Hg10 mi
3:51 PM84 °FScattered clouds.10 mph48%30.10 "Hg10 mi
Weather by CustomWeather, © 2015

See weather overviewHow to use our weather pages